Flag for U.S.A. Weather past 2 weeks in Atlanta, Georgia, U.S.A.

Now
77 °F

Clear.


Feels Like: 79 °F
Forecast: 70 / 81 °F
Wind: No wind

Location: Fulton County Airport-Brown Field

Current Time: Aug 28, 2015 at 11:04:01 PM

Latest Report: Aug 28, 2015 at 9:53 PM


Visibility: 10 mi

Pressure: 30.12 "Hg

Humidity: 71%

Dew point: 67 °F

Location of AtlantaLocation

Historic Weather in Atlanta — Graph

°F

Atlanta temperature yesterday

Maximum temperature yesterday: 86 °F (at 3:53 PM)
Minimum temperature yesterday: 64 °F (at 5:53 AM)
Average temperature yesterday: 74 °F

Past Weeks' High & Low Weather Summary

 TemperatureHumidityPressure
High90 °F (Aug 16, 4:53 PM)97% (Aug 19, 2:53 AM)30.16 "Hg (Aug 19, 2:53 AM)
Low61 °F (Aug 26, 5:53 AM)34% (Aug 14, 3:53 PM)29.89 "Hg (Aug 24, 6:53 PM)
Average77 °F74%30.02 "Hg
* Reported Aug 13 9:53 PM — Aug 28 9:53 PM, Atlanta, Weather by CustomWeather, © 2015

Note: Actual official high and low records may vary slightly from our data, if they occured in-between our weather recording intervals... More about our weather records

Advertising

Atlanta weather history for previous 24 hours

 ConditionsComfort  
Time TempWeatherWind HumidityBarometerVisibility
9:53 PM
Fri, Aug 28
77 °FClear.No wind71%30.12 "Hg10 mi
8:53 PM79 °FSunny.3 mph65%30.09 "Hg10 mi
7:53 PM80 °FSunny.6 mph62%30.08 "Hg10 mi
6:53 PM81 °FScattered clouds.6 mph60%30.06 "Hg10 mi
5:53 PM83 °FPassing clouds.10 mph57%30.07 "Hg10 mi
4:53 PM82 °FPassing clouds.9 mph56%30.07 "Hg10 mi
3:53 PM83 °FScattered clouds.13 mph57%30.07 "Hg10 mi
2:53 PM82 °FScattered clouds.9 mph60%30.11 "Hg10 mi
1:53 PM79 °FPartly sunny.7 mph67%30.13 "Hg10 mi
12:53 PM76 °FMostly cloudy.10 mph74%30.15 "Hg10 mi
11:53 AM75 °FOvercast.12 mph79%30.16 "Hg10 mi
10:53 AM75 °FMostly cloudy.13 mph79%30.15 "Hg10 mi
9:53 AM74 °FOvercast.6 mph82%30.13 "Hg10 mi
8:53 AM73 °FOvercast.5 mph88%30.11 "Hg10 mi
7:53 AM70 °FMostly cloudy.3 mph90%30.09 "Hg10 mi
6:53 AM70 °FOvercast.6 mph87%30.06 "Hg10 mi
6:04 AM69 °FPassing clouds.3 mph87%30.07 "Hg10 mi
4:53 AM69 °FPassing clouds.3 mph87%30.04 "Hg10 mi
3:53 AM69 °FClear.3 mph84%30.03 "Hg10 mi
2:53 AM67 °FClear.No wind90%30.02 "Hg9 mi
1:53 AM69 °FClear.3 mph84%30.03 "Hg10 mi
12:53 AM70 °FClear.No wind84%30.03 "Hg10 mi
11:53 PM
Thu, Aug 27
68 °FClear.No wind90%30.04 "Hg10 mi
Weather by CustomWeather, © 2015

See weather overviewHow to use our weather pages